| time (UTC) | temp C | wind direction | speed KPH | gust KPH | rain 1hr cm | rain 24hr cm | rain mn cm | humidity % | barometer mb |
| 20260831233300 | 33 | 171 | 9.7 | 27.4 | 0.00 | 0.00 | 0.00 | 28 | 1015.6 |
| 20260831232758 | 33 | 93 | 11.3 | 27.4 | 0.00 | 0.00 | 0.00 | 29 | 1015.7 |
| 20260831232321 | 34 | 97 | 9.7 | 24.1 | 0.00 | 0.00 | 0.00 | 29 | 1015.7 |
| 20260831231918 | 34 | 200 | 9.7 | 24.1 | 0.00 | 0.00 | 0.00 | 29 | 1015.7 |
| 20260831231133 | 34 | 121 | 4.8 | 20.9 | 0.00 | 0.00 | 0.00 | 29 | 1015.8 |
| 20260831230633 | 34 | 133 | 8.0 | 20.9 | 0.00 | 0.00 | 0.00 | 28 | 1015.9 |
| 20260831225758 | 34 | 93 | 9.7 | 25.7 | 0.00 | 0.00 | 0.00 | 28 | 1015.9 |
| 20260831225257 | 34 | 173 | 11.3 | 25.7 | 0.00 | 0.00 | 0.00 | 29 | 1015.9 |
| 20260831224757 | 35 | 100 | 9.7 | 27.4 | 0.00 | 0.00 | 0.00 | 29 | 1016.1 |
| 20260831224258 | 35 | 180 | 8.0 | 27.4 | 0.00 | 0.00 | 0.00 | 29 | 1016.1 |
| 20260831224123 | 35 | 134 | 12.9 | 32.2 | 0.00 | 0.00 | 0.00 | 29 | 1015.9 |
| 20260831223257 | 35 | 131 | 6.4 | 32.2 | 0.00 | 0.00 | 0.00 | 29 | 1016.1 |
| 20260831222758 | 35 | 116 | 12.9 | 22.5 | 0.00 | 0.00 | 0.00 | 29 | 1016.1 |
| 20260831222259 | 35 | 168 | 9.7 | 22.5 | 0.00 | 0.00 | 0.00 | 29 | 1016.3 |
| 20260831221758 | 35 | 118 | 6.4 | 19.3 | 0.00 | 0.00 | 0.00 | 28 | 1016.2 |
| 20260831221258 | 35 | 154 | 8.0 | 20.9 | 0.00 | 0.00 | 0.00 | 29 | 1016.3 |
| 20260831220757 | 35 | 162 | 9.7 | 24.1 | 0.00 | 0.00 | 0.00 | 28 | 1016.2 |
| 20260831220257 | 35 | 113 | 11.3 | 24.1 | 0.00 | 0.00 | 0.00 | 28 | 1016.2 |
| 20260831215758 | 35 | 116 | 6.4 | 22.5 | 0.00 | 0.00 | 0.00 | 29 | 1016.2 |
| 20260831215638 | 35 | 124 | 11.3 | 22.5 | 0.00 | 0.00 | 0.00 | 29 | 1016.3 |
| 20260831214759 | 35 | 96 | 9.7 | 30.6 | 0.00 | 0.00 | 0.00 | 29 | 1016.4 |
| 20260831214257 | 35 | 109 | 8.0 | 30.6 | 0.00 | 0.00 | 0.00 | 28 | 1016.4 |
| 20260831213800 | 36 | 179 | 11.3 | 24.1 | 0.00 | 0.00 | 0.00 | 29 | 1016.4 |
| 20260831213523 | 35 | 99 | 9.7 | 19.3 | 0.00 | 0.00 | 0.00 | 28 | 1016.5 |
| 20260831213422 | 35 | 94 | 8.0 | 20.9 | 0.00 | 0.00 | 0.00 | 28 | 1016.4 |
| 20260831212257 | 35 | 114 | 9.7 | 24.1 | 0.00 | 0.00 | 0.00 | 28 | 1016.6 |
| 20260831211759 | 36 | 133 | 11.3 | 24.1 | 0.00 | 0.00 | 0.00 | 28 | 1016.7 |
| 20260831211257 | 36 | 130 | 6.4 | 20.9 | 0.00 | 0.00 | 0.00 | 29 | 1016.8 |
| 20260831210757 | 35 | 185 | 8.0 | 20.9 | 0.00 | 0.00 | 0.00 | 30 | 1016.8 |
| 20260831210257 | 35 | 152 | 9.7 | 27.4 | 0.00 | 0.00 | 0.00 | 29 | 1016.8 |
| 20260831205757 | 35 | 104 | 9.7 | 27.4 | 0.00 | 0.00 | 0.00 | 29 | 1016.9 |
| 20260831205258 | 35 | 237 | 9.7 | 20.9 | 0.00 | 0.00 | 0.00 | 28 | 1016.9 |
| 20260831204757 | 36 | 99 | 12.9 | 20.9 | 0.00 | 0.00 | 0.00 | 27 | 1017.1 |
| 20260831204259 | 36 | 145 | 8.0 | 19.3 | 0.00 | 0.00 | 0.00 | 28 | 1016.9 |
| 20260831203800 | 36 | 133 | 11.3 | 24.1 | 0.00 | 0.00 | 0.00 | 28 | 1017.1 |
| 20260831203638 | 36 | 83 | 14.5 | 24.1 | 0.00 | 0.00 | 0.00 | 28 | 1017.2 |
| 20260831202757 | 35 | 73 | 12.9 | 20.9 | 0.00 | 0.00 | 0.00 | 28 | 1017.4 |
| 20260831202258 | 36 | 172 | 6.4 | 20.9 | 0.00 | 0.00 | 0.00 | 28 | 1017.3 |
| 20260831201757 | 35 | 179 | 8.0 | 20.9 | 0.00 | 0.00 | 0.00 | 28 | 1017.5 |
| 20260831201257 | 35 | 89 | 9.7 | 17.7 | 0.00 | 0.00 | 0.00 | 29 | 1017.5 |
| 20260831200758 | 36 | 138 | 9.7 | 17.7 | 0.00 | 0.00 | 0.00 | 29 | 1017.6 |
| 20260831200259 | 35 | 113 | 4.8 | 19.3 | 0.00 | 0.00 | 0.00 | 29 | 1017.7 |
| 20260831195757 | 35 | 114 | 6.4 | 22.5 | 0.00 | 0.00 | 0.00 | 29 | 1017.8 |
| 20260831195642 | 35 | 168 | 6.4 | 22.5 | 0.00 | 0.00 | 0.00 | 29 | 1017.8 |
| 20260831195143 | 35 | 175 | 12.9 | 22.5 | 0.00 | 0.00 | 0.00 | 31 | 1018.1 |
| 20260831194256 | 35 | 147 | 6.4 | 22.5 | 0.00 | 0.00 | 0.00 | 30 | 1018.0 |
| 20260831193801 | 35 | 100 | 8.0 | 24.1 | 0.00 | 0.00 | 0.00 | 30 | 1017.8 |
| 20260831193256 | 35 | 134 | 11.3 | 24.1 | 0.00 | 0.00 | 0.00 | 30 | 1018.0 |
| 20260831192757 | 35 | 221 | 9.7 | 20.9 | 0.00 | 0.00 | 0.00 | 31 | 1018.0 |
| 20260831192626 | 35 | 244 | 8.0 | 14.5 | 0.00 | 0.00 | 0.00 | 31 | 1018.1 |
| 20260831191758 | 35 | 259 | 4.8 | 19.3 | 0.00 | 0.00 | 0.00 | 31 | 1018.1 |
| 20260831191258 | 35 | 157 | 6.4 | 24.1 | 0.00 | 0.00 | 0.00 | 31 | 1018.2 |
| 20260831190757 | 35 | 148 | 11.3 | 24.1 | 0.00 | 0.00 | 0.00 | 32 | 1018.1 |
| 20260831190257 | 35 | 125 | 12.9 | 24.1 | 0.00 | 0.00 | 0.00 | 33 | 1018.2 |
| 20260831185759 | 35 | 154 | 9.7 | 22.5 | 0.00 | 0.00 | 0.00 | 34 | 1018.3 |
| 20260831185259 | 35 | 178 | 9.7 | 22.5 | 0.00 | 0.00 | 0.00 | 36 | 1018.4 |
| 20260831184756 | 34 | 223 | 4.8 | 17.7 | 0.00 | 0.00 | 0.00 | 33 | 1018.3 |
| 20260831184256 | 35 | 209 | 9.7 | 19.3 | 0.00 | 0.00 | 0.00 | 33 | 1018.5 |
| 20260831184022 | 34 | 109 | 8.0 | 19.3 | 0.00 | 0.00 | 0.00 | 37 | 1018.6 |
| 20260831183802 | 34 | 109 | 8.0 | 19.3 | 0.00 | 0.00 | 0.00 | 37 | 1018.6 |
| 20260831183258 | 34 | 189 | 9.7 | 22.5 | 0.00 | 0.00 | 0.00 | 34 | 1018.6 |
| 20260831183018 | 34 | 113 | 9.7 | 24.1 | 0.00 | 0.00 | 0.00 | 36 | 1018.8 |
| 20260831182916 | 34 | 227 | 6.4 | 22.5 | 0.00 | 0.00 | 0.00 | 37 | 1018.6 |
| 20260831182015 | 34 | 113 | 6.4 | 17.7 | 0.00 | 0.00 | 0.00 | 35 | 1018.8 |
| 20260831181918 | 34 | 228 | 6.4 | 24.1 | 0.00 | 0.00 | 0.00 | 35 | 1018.7 |
| 20260831180758 | 34 | 152 | 8.0 | 22.5 | 0.00 | 0.00 | 0.00 | 36 | 1019.0 |
| 20260831180256 | 34 | 155 | 8.0 | 22.5 | 0.00 | 0.00 | 0.00 | 36 | 1019.0 |
| 20260831175757 | 34 | 233 | 8.0 | 19.3 | 0.00 | 0.00 | 0.00 | 38 | 1019.1 |
| 20260831175404 | 33 | 213 | 9.7 | 17.7 | 0.00 | 0.00 | 0.00 | 37 | 1019.2 |
| 20260831175332 | 33 | 171 | 8.0 | 19.3 | 0.00 | 0.00 | 0.00 | 38 | 1019.1 |
| 20260831174802 | 33 | 213 | 9.7 | 17.7 | 0.00 | 0.00 | 0.00 | 37 | 1019.2 |
| 20260831174624 | 33 | 175 | 6.4 | 17.7 | 0.00 | 0.00 | 0.00 | 40 | 1019.2 |
| 20260831173757 | 33 | 133 | 8.0 | 20.9 | 0.00 | 0.00 | 0.00 | 38 | 1019.2 |
| 20260831173629 | 33 | 238 | 9.7 | 20.9 | 0.00 | 0.00 | 0.00 | 40 | 1019.2 |
| 20260831172758 | 32 | 168 | 12.9 | 17.7 | 0.00 | 0.00 | 0.00 | 40 | 1019.3 |
| 20260831172257 | 33 | 178 | 8.0 | 20.9 | 0.00 | 0.00 | 0.00 | 40 | 1019.3 |
| 20260831171756 | 32 | 199 | 12.9 | 20.9 | 0.00 | 0.00 | 0.00 | 42 | 1019.4 |
| 20260831171258 | 32 | 151 | 9.7 | 17.7 | 0.00 | 0.00 | 0.00 | 43 | 1019.3 |
| 20260831170756 | 32 | 223 | 4.8 | 19.3 | 0.00 | 0.00 | 0.00 | 42 | 1019.3 |
| 20260831170639 | 32 | 175 | 9.7 | 19.3 | 0.00 | 0.00 | 0.00 | 44 | 1019.4 |
| 20260831165756 | 32 | 123 | 11.3 | 20.9 | 0.00 | 0.00 | 0.00 | 44 | 1019.4 |
| 20260831165257 | 32 | 209 | 11.3 | 20.9 | 0.00 | 0.00 | 0.00 | 42 | 1019.4 |
| 20260831165143 | 31 | 199 | 9.7 | 17.7 | 0.00 | 0.00 | 0.00 | 44 | 1019.4 |
| 20260831164257 | 31 | 206 | 4.8 | 17.7 | 0.00 | 0.00 | 0.00 | 45 | 1019.5 |
| 20260831164140 | 31 | 207 | 11.3 | 17.7 | 0.00 | 0.00 | 0.00 | 45 | 1019.5 |
| 20260831163257 | 31 | 235 | 4.8 | 19.3 | 0.00 | 0.00 | 0.00 | 46 | 1019.5 |
| 20260831162756 | 30 | 197 | 8.0 | 19.3 | 0.00 | 0.00 | 0.00 | 47 | 1019.5 |
| 20260831162301 | 30 | 173 | 4.8 | 14.5 | 0.00 | 0.00 | 0.00 | 46 | 1019.5 |
| 20260831161757 | 30 | 266 | 3.2 | 17.7 | 0.00 | 0.00 | 0.00 | 48 | 1019.4 |
| 20260831161257 | 30 | 241 | 8.0 | 17.7 | 0.00 | 0.00 | 0.00 | 47 | 1019.4 |
| 20260831161025 | 30 | 230 | 8.0 | 11.3 | 0.00 | 0.00 | 0.00 | 48 | 1019.4 |
| 20260831160630 | 30 | 203 | 4.8 | 17.7 | 0.00 | 0.00 | 0.00 | 48 | 1019.3 |
| 20260831160100 | 30 | 278 | 6.4 | 17.7 | 0.00 | 0.00 | 0.00 | 48 | 1019.2 |
| 20260831155256 | 30 | 238 | 9.7 | 17.7 | 0.00 | 0.00 | 0.00 | 49 | 1019.2 |
| 20260831154757 | 29 | 216 | 9.7 | 17.7 | 0.00 | 0.00 | 0.00 | 49 | 1019.3 |
| 20260831154257 | 29 | 257 | 8.0 | 16.1 | 0.00 | 0.00 | 0.00 | 48 | 1019.3 |
| 20260831153757 | 28 | 207 | 6.4 | 20.9 | 0.00 | 0.00 | 0.00 | 50 | 1019.3 |
| 20260831153256 | 28 | 164 | 8.0 | 20.9 | 0.00 | 0.00 | 0.00 | 51 | 1019.3 |
| 20260831152758 | 28 | 185 | 8.0 | 16.1 | 0.00 | 0.00 | 0.00 | 51 | 1019.3 |
| 20260831152258 | 28 | 247 | 4.8 | 19.3 | 0.00 | 0.00 | 0.00 | 51 | 1019.3 |
| 20260831151757 | 27 | 206 | 9.7 | 22.5 | 0.00 | 0.00 | 0.00 | 53 | 1019.2 |
| 20260831151256 | 27 | 141 | 9.7 | 22.5 | 0.00 | 0.00 | 0.00 | 51 | 1019.3 |
| 20260831150756 | 27 | 192 | 9.7 | 17.7 | 0.00 | 0.00 | 0.00 | 52 | 1019.3 |
| 20260831150629 | 27 | 183 | 8.0 | 17.7 | 0.00 | 0.00 | 0.00 | 53 | 1019.3 |
| 20260831145756 | 27 | 173 | 9.7 | 17.7 | 0.00 | 0.00 | 0.00 | 52 | 1019.3 |
| 20260831145258 | 26 | 223 | 6.4 | 14.5 | 0.00 | 0.00 | 0.00 | 53 | 1019.3 |
| 20260831144756 | 26 | 250 | 8.0 | 14.5 | 0.00 | 0.00 | 0.00 | 53 | 1019.4 |
| 20260831144255 | 26 | 250 | 4.8 | 11.3 | 0.00 | 0.00 | 0.00 | 53 | 1019.4 |
| 20260831143759 | 26 | 234 | 8.0 | 11.3 | 0.00 | 0.00 | 0.00 | 53 | 1019.4 |
| 20260831143256 | 26 | 243 | 3.2 | 9.7 | 0.00 | 0.00 | 0.00 | 54 | 1019.3 |
| 20260831142757 | 26 | 238 | 4.8 | 16.1 | 0.00 | 0.00 | 0.00 | 54 | 1019.3 |
| 20260831142258 | 26 | 228 | 6.4 | 16.1 | 0.00 | 0.00 | 0.00 | 53 | 1019.4 |
| 20260831141802 | 25 | 230 | 4.8 | 11.3 | 0.00 | 0.00 | 0.00 | 54 | 1019.4 |
| 20260831141629 | 25 | 248 | 6.4 | 11.3 | 0.00 | 0.00 | 0.00 | 54 | 1019.3 |
| 20260831140757 | 25 | 210 | 4.8 | 14.5 | 0.00 | 0.00 | 0.00 | 55 | 1019.2 |
| 20260831140255 | 25 | 173 | 6.4 | 14.5 | 0.00 | 0.00 | 0.00 | 56 | 1019.0 |
| 20260831140147 | 24 | 206 | 4.8 | 9.7 | 0.00 | 0.00 | 0.00 | 56 | 1019.1 |
| 20260831135256 | 24 | 233 | 3.2 | 8.0 | 0.00 | 0.00 | 0.00 | 57 | 1019.1 |
| 20260831134757 | 24 | 213 | 1.6 | 8.0 | 0.00 | 0.00 | 0.00 | 58 | 1019.0 |
| 20260831134259 | 23 | 216 | 3.2 | 6.4 | 0.00 | 0.00 | 0.00 | 57 | 1019.0 |
| 20260831133757 | 23 | 224 | 3.2 | 4.8 | 0.00 | 0.00 | 0.00 | 58 | 1019.0 |
| 20260831133255 | 23 | 173 | 0.0 | 0.0 | 0.00 | 0.00 | 0.00 | 59 | 1018.8 |
| 20260831132755 | 23 | 162 | 0.0 | 0.0 | 0.00 | 0.00 | 0.00 | 59 | 1018.7 |
| 20260831132306 | 23 | 272 | 0.0 | 0.0 | 0.00 | 0.00 | 0.00 | 59 | 1018.8 |
| 20260831131757 | 23 | 272 | 0.0 | 3.2 | 0.00 | 0.00 | 0.00 | 59 | 1018.7 |
| 20260831131559 | 23 | 275 | 0.0 | 3.2 | 0.00 | 0.00 | 0.00 | 59 | 1018.6 |
| 20260831130756 | 23 | 323 | 0.0 | 6.4 | 0.00 | 0.00 | 0.00 | 59 | 1018.5 |
| 20260831130257 | 23 | 0 | 3.2 | 8.0 | 0.00 | 0.00 | 0.00 | 59 | 1018.4 |
| 20260831125756 | 23 | 254 | 3.2 | 17.7 | 0.00 | 0.00 | 0.00 | 59 | 1018.3 |
| 20260831125257 | 22 | 244 | 8.0 | 17.7 | 0.00 | 0.00 | 0.00 | 60 | 1018.1 |
| 20260831124758 | 22 | 275 | 3.2 | 6.4 | 0.00 | 0.00 | 0.00 | 61 | 1018.0 |
| 20260831124635 | 22 | 283 | 0.0 | 6.4 | 0.00 | 0.00 | 0.00 | 60 | 1018.1 |
| 20260831124025 | 22 | 292 | 0.0 | 6.4 | 0.00 | 0.00 | 0.00 | 59 | 1018.0 |
| 20260831123257 | 22 | 293 | 1.6 | 9.7 | 0.00 | 0.00 | 0.00 | 59 | 1017.8 |
| 20260831123100 | 22 | 266 | 4.8 | 9.7 | 0.00 | 0.00 | 0.00 | 59 | 1017.7 |
| 20260831122637 | 22 | 245 | 3.2 | 9.7 | 0.00 | 0.00 | 0.00 | 58 | 1017.6 |
| 20260831121756 | 22 | 258 | 4.8 | 9.7 | 0.00 | 0.00 | 0.00 | 58 | 1017.4 |
| 20260831121258 | 22 | 220 | 4.8 | 11.3 | 0.00 | 0.00 | 0.00 | 58 | 1017.4 |
| 20260831120757 | 22 | 221 | 6.4 | 14.5 | 0.00 | 0.00 | 0.00 | 58 | 1017.2 |
| 20260831120257 | 22 | 226 | 3.2 | 14.5 | 0.00 | 0.00 | 0.00 | 58 | 1016.9 |
| 20260831115758 | 22 | 223 | 0.0 | 6.4 | 0.00 | 0.00 | 0.00 | 57 | 1017.1 |
| 20260831115257 | 22 | 245 | 1.6 | 9.7 | 0.00 | 0.00 | 0.00 | 57 | 1017.1 |
| 20260831115022 | 23 | 226 | 3.2 | 9.7 | 0.00 | 0.00 | 0.00 | 57 | 1016.9 |
| 20260831114800 | 23 | 226 | 3.2 | 9.7 | 0.00 | 0.00 | 0.00 | 57 | 1016.9 |
| 20260831114257 | 23 | 231 | 6.4 | 11.3 | 0.00 | 0.00 | 0.00 | 56 | 1016.7 |
| 20260831113801 | 23 | 234 | 4.8 | 11.3 | 0.00 | 0.00 | 0.00 | 56 | 1016.6 |
| 20260831113303 | 22 | 213 | 4.8 | 8.0 | 0.00 | 0.00 | 0.00 | 57 | 1016.7 |
| 20260831112801 | 23 | 193 | 4.8 | 8.0 | 0.00 | 0.00 | 0.00 | 56 | 1016.7 |
| 20260831112256 | 23 | 228 | 1.6 | 9.7 | 0.00 | 0.00 | 0.00 | 55 | 1016.8 |
| 20260831111758 | 23 | 202 | 4.8 | 14.5 | 0.00 | 0.00 | 0.00 | 55 | 1016.8 |
| 20260831111517 | 23 | 207 | 6.4 | 11.3 | 0.00 | 0.00 | 0.00 | 54 | 1016.6 |
| 20260831111356 | 23 | 223 | 6.4 | 14.5 | 0.00 | 0.00 | 0.00 | 55 | 1016.6 |
| 20260831110746 | 23 | 217 | 4.8 | 14.5 | 0.00 | 0.00 | 0.00 | 54 | 1016.6 |
| 20260831110528 | 23 | 217 | 4.8 | 14.5 | 0.00 | 0.00 | 0.00 | 54 | 1016.6 |
| 20260831110309 | 23 | 217 | 4.8 | 14.5 | 0.00 | 0.00 | 0.00 | 54 | 1016.6 |
| 20260831105757 | 23 | 248 | 6.4 | 14.5 | 0.00 | 0.00 | 0.00 | 54 | 1016.7 |
| 20260831105259 | 23 | 247 | 8.0 | 14.5 | 0.00 | 0.00 | 0.00 | 54 | 1016.4 |
| 20260831104758 | 23 | 220 | 8.0 | 14.5 | 0.00 | 0.00 | 0.00 | 53 | 1016.5 |
| 20260831104302 | 23 | 233 | 6.4 | 17.7 | 0.00 | 0.00 | 0.00 | 53 | 1016.5 |
| 20260831103801 | 23 | 169 | 6.4 | 19.3 | 0.00 | 0.00 | 0.00 | 53 | 1016.5 |
| 20260831103704 | 23 | 224 | 6.4 | 19.3 | 0.00 | 0.00 | 0.00 | 53 | 1016.5 |
| 20260831102758 | 23 | 199 | 8.0 | 20.9 | 0.00 | 0.00 | 0.00 | 53 | 1016.5 |
| 20260831102258 | 23 | 217 | 9.7 | 20.9 | 0.00 | 0.00 | 0.00 | 52 | 1016.5 |
| 20260831101801 | 24 | 183 | 8.0 | 24.1 | 0.00 | 0.00 | 0.00 | 51 | 1016.5 |
| 20260831101738 | 24 | 158 | 11.3 | 24.1 | 0.00 | 0.00 | 0.00 | 52 | 1016.5 |
| 20260831101119 | 23 | 202 | 9.7 | 17.7 | 0.00 | 0.00 | 0.00 | 53 | 1016.5 |
| 20260831100257 | 23 | 193 | 8.0 | 16.1 | 0.00 | 0.00 | 0.00 | 52 | 1016.5 |
| 20260831095759 | 24 | 196 | 8.0 | 16.1 | 0.00 | 0.00 | 0.00 | 51 | 1016.6 |
| 20260831095717 | 24 | 196 | 11.3 | 22.5 | 0.00 | 0.00 | 0.00 | 51 | 1016.6 |
| 20260831094802 | 24 | 219 | 12.9 | 22.5 | 0.00 | 0.00 | 0.00 | 52 | 1016.5 |
| 20260831094256 | 23 | 221 | 9.7 | 17.7 | 0.00 | 0.00 | 0.00 | 52 | 1016.5 |
| 20260831093757 | 24 | 185 | 11.3 | 17.7 | 0.00 | 0.00 | 0.00 | 52 | 1016.4 |
| 20260831093527 | 24 | 212 | 6.4 | 19.3 | 0.00 | 0.00 | 0.00 | 51 | 1016.5 |
| 20260831092756 | 24 | 220 | 8.0 | 19.3 | 0.00 | 0.00 | 0.00 | 51 | 1016.6 |
| 20260831092256 | 23 | 158 | 6.4 | 17.7 | 0.00 | 0.00 | 0.00 | 52 | 1016.5 |
| 20260831091757 | 24 | 221 | 8.0 | 17.7 | 0.00 | 0.00 | 0.00 | 51 | 1016.6 |
| 20260831091257 | 23 | 182 | 9.7 | 16.1 | 0.00 | 0.00 | 0.00 | 52 | 1016.6 |
| 20260831090757 | 24 | 224 | 6.4 | 11.3 | 0.00 | 0.00 | 0.00 | 51 | 1016.6 |
| 20260831090258 | 24 | 197 | 6.4 | 11.3 | 0.00 | 0.00 | 0.00 | 51 | 1016.7 |
| 20260831090015 | 24 | 171 | 4.8 | 9.7 | 0.00 | 0.00 | 0.00 | 52 | 1016.7 |
| 20260831085801 | 24 | 171 | 4.8 | 9.7 | 0.00 | 0.00 | 0.00 | 52 | 1016.7 |
| 20260831085259 | 23 | 210 | 4.8 | 11.3 | 0.00 | 0.00 | 0.00 | 52 | 1016.6 |
| 20260831084800 | 23 | 121 | 4.8 | 11.3 | 0.00 | 0.00 | 0.00 | 53 | 1016.6 |
| 20260831084300 | 23 | 224 | 4.8 | 9.7 | 0.00 | 0.00 | 0.00 | 53 | 1016.7 |
| 20260831084214 | 23 | 188 | 3.2 | 9.7 | 0.00 | 0.00 | 0.00 | 53 | 1016.6 |
| 20260831083259 | 23 | 224 | 4.8 | 9.7 | 0.00 | 0.00 | 0.00 | 53 | 1016.5 |
| 20260831082756 | 23 | 227 | 3.2 | 8.0 | 0.00 | 0.00 | 0.00 | 53 | 1016.4 |
| 20260831082256 | 23 | 159 | 4.8 | 8.0 | 0.00 | 0.00 | 0.00 | 53 | 1016.4 |
| 20260831081809 | 23 | 183 | 3.2 | 14.5 | 0.00 | 0.00 | 0.00 | 51 | 1016.2 |
| 20260831081756 | 23 | 148 | 3.2 | 8.0 | 0.00 | 0.00 | 0.00 | 53 | 1016.3 |
| 20260831081600 | 24 | 141 | 6.4 | 14.5 | 0.00 | 0.00 | 0.00 | 51 | 1016.2 |
| 20260831081419 | 23 | 155 | 4.8 | 8.0 | 0.00 | 0.00 | 0.00 | 52 | 1016.2 |
| 20260831075757 | 24 | 128 | 6.4 | 11.3 | 0.00 | 0.00 | 0.00 | 50 | 1016.2 |
| 20260831075256 | 24 | 144 | 4.8 | 11.3 | 0.00 | 0.00 | 0.00 | 50 | 1016.2 |
| 20260831074756 | 25 | 124 | 4.8 | 14.5 | 0.00 | 0.00 | 0.00 | 49 | 1016.2 |
| 20260831074634 | 25 | 161 | 6.4 | 16.1 | 0.00 | 0.00 | 0.00 | 49 | 1016.2 |
| 20260831074458 | 25 | 175 | 4.8 | 14.5 | 0.00 | 0.00 | 0.00 | 49 | 1016.3 |
| 20260831073304 | 25 | 173 | 8.0 | 16.1 | 0.00 | 0.00 | 0.00 | 48 | 1016.2 |
| 20260831072802 | 25 | 151 | 4.8 | 16.1 | 0.00 | 0.00 | 0.00 | 48 | 1016.2 |
| 20260831072258 | 25 | 121 | 6.4 | 17.7 | 0.00 | 0.00 | 0.00 | 48 | 1016.2 |
| 20260831071758 | 25 | 152 | 4.8 | 17.7 | 0.00 | 0.00 | 0.00 | 48 | 1016.2 |
| 20260831071749 | 25 | 206 | 6.4 | 16.1 | 0.00 | 0.00 | 0.00 | 47 | 1016.3 |
| 20260831071509 | 25 | 173 | 6.4 | 17.7 | 0.00 | 0.00 | 0.00 | 47 | 1016.3 |
| 20260831070255 | 25 | 135 | 4.8 | 19.3 | 0.00 | 0.00 | 0.00 | 47 | 1016.3 |
| 20260831070241 | 25 | 124 | 9.7 | 19.3 | 0.00 | 0.00 | 0.00 | 47 | 1016.3 |
| 20260831065541 | 25 | 185 | 9.7 | 19.3 | 0.00 | 0.00 | 0.00 | 47 | 1016.3 |
| 20260831065313 | 25 | 185 | 9.7 | 19.3 | 0.00 | 0.00 | 0.00 | 47 | 1016.3 |
| 20260831064758 | 25 | 182 | 6.4 | 19.3 | 0.00 | 0.00 | 0.00 | 47 | 1016.2 |
| 20260831064256 | 25 | 186 | 8.0 | 16.1 | 0.00 | 0.00 | 0.00 | 47 | 1016.3 |
| 20260831063804 | 25 | 176 | 6.4 | 16.1 | 0.00 | 0.00 | 0.00 | 47 | 1016.2 |
| 20260831063300 | 25 | 251 | 6.4 | 16.1 | 0.00 | 0.00 | 0.00 | 47 | 1016.2 |
| 20260831063135 | 25 | 165 | 6.4 | 17.7 | 0.00 | 0.00 | 0.00 | 46 | 1016.1 |
| 20260831062257 | 25 | 171 | 8.0 | 17.7 | 0.00 | 0.00 | 0.00 | 46 | 1016.2 |
| 20260831061805 | 25 | 186 | 8.0 | 16.1 | 0.00 | 0.00 | 0.00 | 46 | 1016.1 |
| 20260831061257 | 25 | 168 | 4.8 | 11.3 | 0.00 | 0.00 | 0.00 | 46 | 1016.2 |
| 20260831060757 | 25 | 195 | 4.8 | 9.7 | 0.00 | 0.00 | 0.00 | 46 | 1016.2 |
| 20260831060256 | 25 | 142 | 4.8 | 11.3 | 0.00 | 0.00 | 0.00 | 45 | 1016.2 |
| 20260831055756 | 25 | 145 | 6.4 | 14.5 | 0.00 | 0.00 | 0.00 | 45 | 1016.2 |
| 20260831055618 | 26 | 157 | 4.8 | 8.0 | 0.00 | 0.00 | 0.00 | 45 | 1016.1 |
| 20260831055436 | 25 | 151 | 4.8 | 14.5 | 0.00 | 0.00 | 0.00 | 45 | 1016.2 |
| 20260831054654 | 26 | 210 | 4.8 | 14.5 | 0.00 | 0.00 | 0.00 | 44 | 1016.1 |
| 20260831053756 | 26 | 147 | 6.4 | 14.5 | 0.00 | 0.00 | 0.00 | 44 | 1016.1 |
| 20260831053300 | 26 | 158 | 4.8 | 11.3 | 0.00 | 0.00 | 0.00 | 43 | 1015.9 |
| 20260831052758 | 26 | 209 | 6.4 | 11.3 | 0.00 | 0.00 | 0.00 | 43 | 1015.9 |
| 20260831052301 | 26 | 159 | 6.4 | 11.3 | 0.00 | 0.00 | 0.00 | 43 | 1015.8 |
| 20260831051800 | 27 | 154 | 6.4 | 16.1 | 0.00 | 0.00 | 0.00 | 42 | 1015.8 |
| 20260831051258 | 27 | 186 | 6.4 | 16.1 | 0.00 | 0.00 | 0.00 | 42 | 1015.7 |
| 20260831050758 | 27 | 80 | 8.0 | 16.1 | 0.00 | 0.00 | 0.00 | 42 | 1015.7 |
| 20260831050256 | 27 | 182 | 8.0 | 11.3 | 0.00 | 0.00 | 0.00 | 41 | 1015.7 |
| 20260831045756 | 27 | 165 | 6.4 | 14.5 | 0.00 | 0.00 | 0.00 | 41 | 1015.6 |
| 20260831045522 | 27 | 190 | 6.4 | 20.9 | 0.00 | 0.00 | 0.00 | 41 | 1015.6 |
| 20260831045307 | 27 | 121 | 6.4 | 17.7 | 0.00 | 0.00 | 0.00 | 41 | 1015.6 |
| 20260831045248 | 27 | 190 | 6.4 | 20.9 | 0.00 | 0.00 | 0.00 | 41 | 1015.6 |
| 20260831044332 | 27 | 120 | 8.0 | 11.3 | 0.00 | 0.00 | 0.00 | 40 | 1015.6 |
| 20260831044305 | 27 | 206 | 6.4 | 20.9 | 0.00 | 0.00 | 0.00 | 40 | 1015.6 |
| 20260831043648 | 27 | 197 | 6.4 | 17.7 | 0.00 | 0.00 | 0.00 | 41 | 1015.5 |
| 20260831042756 | 27 | 172 | 6.4 | 19.3 | 0.00 | 0.00 | 0.00 | 40 | 1015.6 |
| 20260831042255 | 27 | 145 | 9.7 | 19.3 | 0.00 | 0.00 | 0.00 | 40 | 1015.5 |
| 20260831042035 | 27 | 164 | 8.0 | 16.1 | 0.00 | 0.00 | 0.00 | 41 | 1015.6 |
| 20260831041803 | 27 | 164 | 8.0 | 16.1 | 0.00 | 0.00 | 0.00 | 41 | 1015.6 |
| 20260831041317 | 28 | 166 | 8.0 | 20.9 | 0.00 | 0.00 | 0.00 | 40 | 1015.6 |
| 20260831040820 | 28 | 235 | 11.3 | 19.3 | 0.00 | 0.00 | 0.00 | 40 | 1015.5 |
| 20260831040806 | 28 | 176 | 11.3 | 20.9 | 0.00 | 0.00 | 0.00 | 40 | 1015.6 |
| 20260831035818 | 28 | 127 | 6.4 | 16.1 | 0.00 | 0.00 | 0.00 | 39 | 1015.5 |
| 20260831035807 | 28 | 168 | 8.0 | 20.9 | 0.00 | 0.00 | 0.00 | 39 | 1015.4 |
| 20260831035757 | 28 | 124 | 6.4 | 17.7 | 0.00 | 0.00 | 0.00 | 40 | 1015.5 |
| 20260831034626 | 28 | 176 | 8.0 | 17.7 | 0.00 | 0.00 | 0.00 | 39 | 1015.4 |
| 20260831033539 | 28 | 117 | 8.0 | 20.9 | 0.00 | 0.00 | 0.00 | 39 | 1015.3 |
| 20260831033320 | 28 | 117 | 8.0 | 20.9 | 0.00 | 0.00 | 0.00 | 39 | 1015.3 |
| 20260831032803 | 28 | 73 | 6.4 | 16.1 | 0.00 | 0.00 | 0.00 | 39 | 1015.3 |
| 20260831032259 | 28 | 133 | 8.0 | 17.7 | 0.00 | 0.00 | 0.00 | 39 | 1015.3 |
| 20260831032146 | 29 | 138 | 8.0 | 19.3 | 0.00 | 0.00 | 0.00 | 38 | 1015.3 |
| 20260831031737 | 29 | 113 | 6.4 | 24.1 | 0.00 | 0.00 | 0.00 | 38 | 1015.3 |
| 20260831031253 | 29 | 114 | 11.3 | 24.1 | 0.00 | 0.00 | 0.00 | 38 | 1015.1 |
| 20260831031018 | 29 | 114 | 11.3 | 24.1 | 0.00 | 0.00 | 0.00 | 38 | 1015.1 |
| 20260831030805 | 29 | 114 | 11.3 | 24.1 | 0.00 | 0.00 | 0.00 | 38 | 1015.1 |
| 20260831030700 | 29 | 195 | 9.7 | 20.9 | 0.00 | 0.00 | 0.00 | 38 | 1014.9 |
| 20260831025758 | 29 | 172 | 8.0 | 17.7 | 0.00 | 0.00 | 0.00 | 38 | 1014.9 |
| 20260831025516 | 29 | 182 | 6.4 | 17.7 | 0.00 | 0.00 | 0.00 | 38 | 1014.8 |
| 20260831024756 | 29 | 166 | 9.7 | 19.3 | 0.00 | 0.00 | 0.00 | 38 | 1014.7 |
| 20260831024256 | 30 | 183 | 4.8 | 19.3 | 0.00 | 0.00 | 0.00 | 37 | 1014.7 |
| 20260831023756 | 30 | 107 | 8.0 | 19.3 | 0.00 | 0.00 | 0.00 | 37 | 1014.6 |
| 20260831023257 | 30 | 117 | 9.7 | 22.5 | 0.00 | 0.00 | 0.00 | 37 | 1014.7 |
| 20260831022755 | 30 | 144 | 8.0 | 22.5 | 0.00 | 0.00 | 0.00 | 36 | 1014.5 |
| 20260831022257 | 30 | 217 | 8.0 | 22.5 | 0.00 | 0.00 | 0.00 | 36 | 1014.4 |
| 20260831021758 | 30 | 127 | 8.0 | 22.5 | 0.00 | 0.00 | 0.00 | 36 | 1014.4 |
| 20260831021302 | 31 | 164 | 11.3 | 22.5 | 0.00 | 0.00 | 0.00 | 36 | 1014.3 |
| 20260831021135 | 31 | 145 | 9.7 | 22.5 | 0.00 | 0.00 | 0.00 | 35 | 1014.3 |
| 20260831020651 | 31 | 110 | 11.3 | 20.9 | 0.00 | 0.00 | 0.00 | 35 | 1014.0 |
| 20260831015755 | 31 | 134 | 4.8 | 20.9 | 0.00 | 0.00 | 0.00 | 34 | 1014.2 |
| 20260831015449 | 31 | 117 | 8.0 | 24.1 | 0.00 | 0.00 | 0.00 | 34 | 1014.2 |
| 20260831015256 | 31 | 166 | 8.0 | 24.1 | 0.00 | 0.00 | 0.00 | 34 | 1014.2 |
| 20260831014259 | 31 | 140 | 6.4 | 19.3 | 0.00 | 0.00 | 0.00 | 33 | 1014.0 |
| 20260831013758 | 31 | 168 | 8.0 | 20.9 | 0.00 | 0.00 | 0.00 | 33 | 1013.9 |
| 20260831013255 | 32 | 212 | 8.0 | 20.9 | 0.00 | 0.00 | 0.00 | 33 | 1013.9 |
| 20260831012756 | 32 | 138 | 11.3 | 22.5 | 0.00 | 0.00 | 0.00 | 33 | 1013.9 |
| 20260831012257 | 32 | 140 | 6.4 | 22.5 | 0.00 | 0.00 | 0.00 | 32 | 1013.9 |
| 20260831012210 | 32 | 179 | 6.4 | 19.3 | 0.00 | 0.00 | 0.00 | 32 | 1013.9 |
| 20260831011255 | 32 | 168 | 8.0 | 20.9 | 0.00 | 0.00 | 0.00 | 32 | 1013.9 |
| 20260831010758 | 32 | 168 | 9.7 | 20.9 | 0.00 | 0.00 | 0.00 | 31 | 1013.8 |
| 20260831010255 | 33 | 166 | 6.4 | 19.3 | 0.00 | 0.00 | 0.00 | 31 | 1013.7 |
| 20260831005755 | 33 | 121 | 8.0 | 17.7 | 0.00 | 0.00 | 0.00 | 31 | 1013.8 |
| 20260831005257 | 33 | 152 | 8.0 | 19.3 | 0.00 | 0.00 | 0.00 | 31 | 1013.8 |
| 20260831004800 | 33 | 133 | 9.7 | 24.1 | 0.00 | 0.00 | 0.00 | 30 | 1013.6 |
| 20260831004523 | 33 | 131 | 12.9 | 25.7 | 0.00 | 0.00 | 0.00 | 30 | 1013.6 |
| 20260831003759 | 33 | 128 | 9.7 | 25.7 | 0.00 | 0.00 | 0.00 | 29 | 1013.6 |
| 20260831003255 | 33 | 182 | 9.7 | 29.0 | 0.00 | 0.00 | 0.00 | 30 | 1013.6 |
| 20260831002755 | 34 | 134 | 12.9 | 29.0 | 0.00 | 0.00 | 0.00 | 29 | 1013.6 |
| 20260831002255 | 34 | 159 | 8.0 | 25.7 | 0.00 | 0.00 | 0.00 | 29 | 1013.6 |
| 20260831001755 | 34 | 151 | 9.7 | 27.4 | 0.00 | 0.00 | 0.00 | 30 | 1013.5 |
| 20260831001257 | 35 | 157 | 12.9 | 27.4 | 0.00 | 0.00 | 0.00 | 28 | 1013.6 |
| 20260831000755 | 35 | 169 | 6.4 | 27.4 | 0.00 | 0.00 | 0.00 | 28 | 1013.5 |
| 20260831000256 | 35 | 182 | 11.3 | 27.4 | 0.00 | 0.00 | 0.00 | 27 | 1013.6 |
| 20260830235755 | 35 | 216 | 8.0 | 27.4 | 0.00 | 0.00 | 0.00 | 28 | 1013.6 |
| 20260830235642 | 35 | 161 | 12.9 | 27.4 | 0.00 | 0.00 | 0.00 | 27 | 1013.6 |
| 20260830234755 | 35 | 224 | 12.9 | 25.7 | 0.00 | 0.00 | 0.00 | 28 | 1013.6 |
| 20260830234254 | 36 | 107 | 9.7 | 27.4 | 0.00 | 0.00 | 0.00 | 27 | 1013.6 |
| 20260830233757 | 36 | 131 | 11.3 | 25.7 | 0.00 | 0.00 | 0.00 | 28 | 1013.6 |